Location: Rocktram
(38.2574°N, 122.2805°W)
Time: 03:45:08
(UTC+00:00)

Daily predictions for brighter satellites

Satellite Brightness Start Highest point End
(mag) Time Altitude Azimuth Time Altitude Azimuth Time Altitude Azimuth
FALCON 9 R/B 4.1 02:32:29 10° SW 02:38:15 45° SSE 03:07:58 10° E
Cosmos 2219 Rocket 4.4 02:49:34 10° WSW 02:54:28 29° WNW 02:59:23 10° N
STARLINK-1236 3.8 02:50:59 10° SW 02:55:01 74° NW 02:59:05 10° NE
Cosmos 1892 Rocket 4.1 02:54:56 10° N 02:59:11 41° ENE 03:03:24 10° SSE
HJ-1C 3.8 02:56:41 10° SE 02:59:50 41° ENE 03:03:01 10° N
Ariane Rocket 3.6 02:56:15 10° SE 03:00:51 36° ENE 03:05:27 10° N
Delta 2 Rocket 4.1 02:59:00 10° W 03:03:21 54° S 03:08:17 10° ESE
Cosmos 332 Rocket 3.9 02:59:14 10° N 03:04:05 59° ENE 03:08:55 10° SSE
Cosmos 1980 4.3 02:58:51 10° SSW 03:04:28 63° WNW 03:10:08 10° NNE
STARLINK-1269 4.1 03:00:31 10° WSW 03:04:32 61° NW 03:08:33 10° NE
Cosmos 1943 Rocket 4.1 03:04:15 10° NNE 03:06:02 11° NE 03:07:50 10° ENE
Okean 1-7 Rocket 3.9 03:04:17 10° N 03:08:29 43° E 03:12:38 10° SSE
STARLINK-1200 4.3 03:05:14 10° WSW 03:09:13 56° NW 03:13:15 10° NE
Cosmos 1110 Rocket 4.3 03:05:40 10° N 03:10:45 48° ENE 03:15:45 10° SE
STARLINK-1066 4.5 03:08:19 10° NNW 03:10:55 23° NNE 03:13:08 12° E
ARGOS Delta rocket 4.3 03:06:27 10° SE 03:11:13 46° ENE 03:16:16 10° N
STARLINK-1081 4.5 03:08:47 10° NNW 03:11:20 22° NNE 03:13:31 12° E
STARLINK-1070 4.5 03:09:15 10° NNW 03:11:48 23° NNE 03:13:56 12° E
STARLINK-1069 4.5 03:09:38 10° NNW 03:12:14 23° NNE 03:14:24 13° E
STARLINK-1085 4.5 03:10:04 10° NNW 03:12:41 23° NNE 03:14:50 13° E
STARLINK-1086 4.4 03:10:35 10° NNW 03:13:10 23° NNE 03:15:15 13° E
STARLINK-1095 4.4 03:11:01 10° NNW 03:13:36 23° NNE 03:15:40 13° E
STARLINK-1192 4.4 03:09:58 10° WSW 03:13:55 51° NW 03:17:55 10° NE
STARLINK-1077 4.4 03:11:26 10° NNW 03:14:02 24° NNE 03:16:05 13° E
STARLINK-1075 4.4 03:11:54 10° NNW 03:14:31 24° NNE 03:16:32 13° E
Cosmos 1805 3.4 03:11:00 10° S 03:14:54 77° W 03:18:50 10° N
STARLINK-1093 4.4 03:12:18 10° NNW 03:14:58 24° NNE 03:17:01 14° E
STARLINK-1074 4.4 03:12:44 10° NNW 03:15:24 24° NNE 03:17:26 14° E
Cosmos 1544 Rocket 3.9 03:11:29 10° SSE 03:15:37 43° E 03:19:49 10° NNE
STARLINK-1087 4.4 03:13:14 10° NNW 03:15:52 24° NNE 03:17:50 14° E
STARLINK-1088 4.3 03:13:41 10° NNW 03:16:19 24° NNE 03:18:16 14° E
SJ-11-01 4.4 03:11:59 10° SSE 03:16:34 57° ENE 03:21:10 10° N
STARLINK-1115 4.3 03:14:05 10° NNW 03:16:46 25° NNE 03:18:45 14° E
STARLINK-1076 4.3 03:14:31 10° NNW 03:17:13 25° NNE 03:19:10 15° E
STARLINK-1092 4.3 03:14:58 10° NNW 03:17:41 25° NNE 03:19:37 15° E
SL-16 R/B 2.3 03:12:35 10° S 03:18:06 56° ESE 03:23:37 10° NNE
STARLINK-1080 4.3 03:15:28 10° NNW 03:18:08 25° NNE 03:20:00 15° E
STARLINK-1090 4.3 03:15:54 10° NNW 03:18:34 25° NNE 03:20:26 15° E
STARLINK-1089 4.3 03:16:21 10° NNW 03:19:02 26° NNE 03:20:52 15° E
STARLINK-1107 4.3 03:16:48 10° NNW 03:19:29 26° NNE 03:21:18 16° E
CSL-04 Rocket 4.2 03:15:25 10° S 03:20:40 60° WSW 03:25:55 10° NNW
S3M 4.1 03:14:32 10° S 03:20:54 87° W 03:27:20 10° N
SL-08 ROCKET BODY 4.4 03:18:41 10° N 03:24:48 75° E 03:30:48 10° SSE
H-2A R/B 2.2 03:21:56 10° SSE 03:27:07 54° ENE 03:32:12 10° N
Cosmos 1386 Rocket 4.4 03:22:33 10° N 03:28:37 82° E 03:34:37 10° S
CZ-2C R/B 4.4 03:25:24 10° NNE 03:29:41 33° E 03:33:53 10° SSE
FREGAT/IRIS 2.8 03:29:00 20° SE 03:30:33 40° ENE 03:33:08 10° N
Abrixas rocket 2.0 03:27:58 10° SW 03:30:51 53° SE 03:32:33 21° ENE
CZ-4 R/B 4.1 03:29:23 10° SW 03:32:18 20° W 03:35:13 10° NW
Cosmos 1470 3.1 03:31:56 10° SSE 03:35:35 41° E 03:39:15 10° NNE
MONITOR-E 3.7 03:40:23 33° SE 03:41:18 56° ENE 03:43:55 10° N
SJ-6B 3.1 03:40:05 17° SE 03:42:55 50° ENE 03:46:54 10° N
Cosmos 1758 3.4 03:41:30 10° S 03:45:28 52° E 03:49:28 10° NNE
STARLINK-1126 4.4 03:42:10 10° NW 03:45:57 37° NE 03:47:29 26° E
Cosmos 2297 3.8 03:41:30 10° NNW 03:47:06 58° ENE 03:50:51 21° SE
Cosmos 1269 Rocket 4.4 03:43:00 10° SSW 03:48:14 66° WNW 03:53:32 10° NNE
Cosmos 1302 Rocket 4.3 03:43:08 10° N 03:48:15 48° ENE 03:51:07 24° SE
Cosmos 2237 Rocket 4.2 03:43:27 10° WSW 03:48:18 30° WNW 03:53:13 10° N
STARLINK-1082 4.3 03:46:42 10° NW 03:50:33 39° NE 03:51:53 30° ENE
Resurs 1-3 4.4 03:51:39 29° E 03:52:31 32° ENE 03:56:24 10° N
SL-08 RB Rocket 3.7 03:51:25 23° SE 03:54:05 56° ENE 03:58:32 10° N
STARLINK-1100 4.2 03:51:18 10° NW 03:55:10 42° NE 03:56:19 33° ENE
Cosmos 2251 Rocket 4.0 03:50:30 10° SSE 03:55:22 37° E 04:00:17 10° NE
CZ-2C R/B 3.0 03:53:08 10° NNE 03:57:56 38° E 04:00:18 25° SSE
Cosmos 2278 Rocket 4.0 03:53:46 10° NW 03:58:40 31° WSW 04:03:33 10° SSW
ARGOS 3.1 03:54:11 10° SSE 03:59:35 89° E 04:05:01 10° NNW
STARLINK-1083 4.0 03:55:58 10° NW 03:59:53 46° NE 04:00:50 38° ENE
SL-24 R/B 3.9 03:55:37 10° NNE 04:00:01 59° E 04:03:10 15° S
Resurs 01 Rocket 2.6 04:00:52 27° ENE 04:00:52 27° ENE 04:04:30 10° NNE
USA 186 2.5 03:59:50 15° S 04:02:35 58° W 04:05:58 10° NNW
STARLINK-1125 3.9 04:00:34 10° NW 04:04:32 50° NE 04:05:17 43° ENE
SL-14 R/B 3.6 04:01:14 10° NNW 04:05:16 67° W 04:08:34 14° S
Cosmos 304 Rocket 4.5 04:02:07 10° NNW 04:06:46 53° WSW 04:11:13 11° S
SEDSat Delta rocket 4.4 04:03:37 10° SW 04:06:41 22° S 04:06:41 22° S
Meteor 1-24 Rocket 4.4 04:01:59 10° NNW 04:07:16 51° W 04:12:25 10° SSW
STARLINK-1118 4.5 04:06:17 10° WNW 04:07:33 22° WSW 04:07:33 22° WSW
STARLINK-1109 3.8 04:04:56 10° NW 04:08:57 54° NE 04:09:31 49° ENE
MetOp-A 4.1 04:09:14 32° SE 04:11:39 63° ENE 04:16:56 10° N
USA 234 3.6 04:06:23 10° NE 04:12:50 65° NW 04:19:18 10° WSW
STARLINK-1091 3.6 04:09:37 10° NW 04:13:39 59° NE 04:14:02 56° ENE
Cosmos 2184 Rocket 4.4 04:09:06 10° N 04:15:04 42° ENE 04:16:17 38° ESE
CZ-2C R/B 3.5 04:11:03 10° S 04:16:07 57° W 04:20:58 10° NNW
IRIDIUM 104 4.3 04:12:14 10° N 04:17:25 63° E 04:19:01 42° SSE
BREEZE M DEB (TANK) 4.0 04:11:06 10° SW 04:24:56 78° SE 04:26:44 40° ENE
Cosmos 1626 3.7 04:22:17 10° NNW 04:25:40 34° W 04:28:03 17° SSW
STARLINK-1072 3.5 04:21:43 10° NW 04:25:36 75° NNE 04:25:36 75° NNE
SPOT 3 Rocket 3.5 04:23:58 33° S 04:26:22 85° WSW 04:31:37 10° NNW
IRIDIUM 114 4.2 04:21:21 10° N 04:26:36 77° E 04:28:10 46° SSE
Cosmos 2369 Rocket 2.8 04:21:27 10° N 04:26:44 37° ENE 04:26:54 37° ENE
Cosmos 1953 2.3 04:27:25 74° NNE 04:27:25 74° NNE 04:31:03 10° N
STARLINK-1096 3.6 04:26:13 10° NW 04:29:57 74° NNW 04:29:57 74° NNW
MOS 1 Rocket 3.5 04:26:44 10° NNE 04:32:02 84° E 04:35:47 21° S
Cosmos 292 Rocket 4.2 04:27:43 10° N 04:31:46 45° NE 04:31:46 45° NE
STARLINK-1079 3.8 04:30:48 10° NW 04:34:21 68° NW 04:34:21 68° NW
IRIDIUM 103 4.2 04:30:31 10° N 04:35:46 86° W 04:37:20 47° S
OAO 3 Copernicus 4.4 04:31:28 10° W 04:36:20 58° S 04:36:20 58° S
STARLINK-1116 4.0 04:35:17 10° NW 04:38:40 60° WNW 04:38:40 60° WNW
Cosmos 967 Rocket 4.4 04:34:04 10° SSW 04:40:25 71° ESE 04:46:53 10° NE
Meteor 1-21 Rocket 4.1 04:37:16 10° N 04:42:50 88° W 04:43:52 61° S
Cosmos 1943 4.1 04:47:34 34° NE 04:47:34 34° NE 04:50:48 10° NNE
Cosmos 1602 Rocket 4.4 04:41:47 10° NNW 04:46:05 48° W 04:47:02 40° SW
STARLINK-1094 4.5 04:44:27 10° NW 04:47:27 46° WNW 04:47:27 46° WNW
Nadezhda 1 Rocket 3.9 04:48:59 65° ESE 04:49:10 65° E 04:55:31 10° NNE
Cosmos 1943 Rocket 2.0 04:45:08 10° NNW 04:50:36 78° NE 04:50:36 78° NE
Spot 2 Rocket 4.3 04:54:02 39° NNE 04:54:02 39° NNE 04:57:34 10° N
Meteor 2-10 4.2 04:52:58 48° SSW 04:54:24 72° W 04:59:54 10° N
Terra 4.4 05:03:59 10° NNE 05:03:59 10° NNE 05:04:00 10° NNE
ISS -0.5 05:05:36 10° NNW 05:05:59 12° NNW 05:05:59 12° NNW
Cosmos 2074 Rocket 4.2 05:03:11 10° NNW 05:09:25 69° W 05:10:25 59° SW
Resurs 01 Rocket 3.9 05:38:26 21° WNW 05:38:26 21° WNW 05:40:47 10° NW
ATLAS 5 CENTAUR R/B 4.4 05:37:31 10° SW 06:17:14 17° ESE 06:31:02 10° ESE
ATLAS 2AS CENTAUR R/B 3.5 05:49:13 10° NNW 05:54:52 45° N 05:54:52 45° N
Cosmos 2369 Rocket 4.1 06:05:46 10° NW 06:08:43 24° WNW 06:08:43 24° WNW
CZ-2D R/B 4.5 10:00:51 10° N 10:02:15 19° N 10:02:15 19° N
ADEOS II 4.2 10:09:52 10° NNE 10:11:50 22° NE 10:11:50 22° NE
SJ 16-02 4.4 10:20:34 13° NE 10:20:34 13° NE 10:21:06 10° NE
USA 267 4.0 10:21:24 10° NE 10:26:11 46° N 10:26:11 46° N
Cosmos 2333 Rocket 4.2 10:26:26 10° N 10:31:03 25° ENE 10:35:37 10° ESE
IDEFIX/ARIANE 42P 4.3 10:40:10 10° NE 10:44:21 25° E 10:44:21 25° E
USA 234 3.8 10:53:31 10° ESE 10:59:52 56° NE 11:06:13 10° NW
Timation 2 Rocket 4.2 11:12:08 64° SE 11:12:49 68° ESE 11:19:37 10° NNE
Cosmos 2297 Rocket 4.1 11:15:33 16° SE 11:18:29 24° ESE 11:22:55 10° NE
Cosmos 990 Rocket 4.5 11:28:49 51° N 11:28:49 51° N 11:32:47 10° NNE
Cosmos 158 Rocket 4.2 11:25:43 10° NNW 11:30:10 63° N 11:30:10 63° N
Meteor 1-27 Rocket 4.1 11:34:00 50° NW 11:34:00 50° NW 11:38:36 10° N
COSMOS 2428 2.9 11:28:34 10° NNW 11:34:16 70° ENE 11:39:55 10° SSE
STARLINK-1015 4.4 11:40:15 50° E 11:40:15 50° E 11:43:32 10° NE
Geosat 3.8 11:34:49 10° NNE 11:39:52 86° WNW 11:39:55 86° W
BREEZE-M DEB 4.1 11:39:50 53° S 11:40:56 66° SE 11:56:11 10° NE
Cosmos 1703 Rocket 4.1 11:41:33 52° SE 11:42:10 57° E 11:46:34 10° NNE
STARLINK-24 4.2 11:43:23 52° ENE 11:43:23 52° ENE 11:46:32 10° NE
Cosmos 2227 Rocket 3.6 11:39:36 16° SSE 11:43:20 35° ESE 11:48:23 10° NE
STARLINK-1016 4.1 11:45:03 59° E 11:45:03 59° E 11:48:34 10° NE
STARLINK-1014 4.2 11:45:24 52° E 11:45:24 52° E 11:48:35 10° NE
Meteor 1-11 Rocket 4.4 11:42:01 10° NNW 11:46:21 41° WNW 11:46:21 41° WNW
Tsikada Rocket 4.1 11:48:19 54° W 11:48:54 56° W 11:55:13 10° N
SeaSat 1 3.4 11:44:32 10° SE 11:49:14 46° ENE 11:53:57 10° NNW
Cosmos 2219 Rocket 2.0 11:43:41 10° NNW 11:49:18 82° WSW 11:54:52 10° SSE
STARLINK-1008 3.8 11:49:50 68° ENE 11:49:50 68° ENE 11:53:32 10° NE
STARLINK-1010 3.8 11:49:56 69° NNE 11:49:56 69° NNE 11:53:43 10° NE
ARIANE 5 R/B 3.8 11:45:11 10° N 11:48:25 27° NW 11:48:25 27° NW
CZ-2C R/B 4.1 11:46:25 10° N 11:48:47 32° NNW 11:48:47 32° NNW
ADEOS II 3.8 11:50:31 10° NNW 11:52:46 18° NW 11:52:46 18° NW
SJ 16-02 3.1 11:57:34 21° NNW 11:57:34 21° NNW 11:59:39 10° N
